Location: *
(55.5817°S, 142.4781°W)
Time: 07:18:51
(UTC+00:00)

Cosmos 1869 Rocket - Pass Details

Date: 29 April 2025
Orbit: 600 x 625 km, 82.5° (Epoch: 23 May)

Event Time Altitude Azimuth Distance (km) Brightness Sun altitude
Rises 15:20:37 0° 335° (NNW) 2,920 6.8 -13.0°
Reaches altitude 10° 15:22:54 10° 330° (NNW) 2,019 6.0 -12.7°
Maximum altitude 15:27:17 51° 253° (WSW) 800 3.7 -12.1°
Drops below altitude 10° 15:31:41 10° 175° (S) 2,033 6.2 -11.4°
Sets 15:34:00 0° 170° (S) 2,943 7.0 -11.1°
